Change the Weather History Date:

Wednesday, June 25, 2014

  Actual Average Record
Temperature  
Mean Temperature 60 °F -  
Max Temperature 68 °F 78 °F 96 °F (2001)
Min Temperature 53 °F 55 °F 38 °F (1982)
Degree Days  
Heating Degree Days 4    
Growing Degree Days 10 (Base 50)    
Moisture  
Dew Point 55 °F    
Average Humidity 83    
Maximum Humidity 94    
Minimum Humidity 68    
Precipitation  
Precipitation 0.00 in - - ()
Sea Level Pressure  
Sea Level Pressure 30.06 in    
Wind  
Wind Speed 7 mph (SE)    
Max Wind Speed 13 mph    
Max Gust Speed -    
Visibility 10 miles    
Events      
Averages and records for this station are not official NWS values.
T = Trace of Precipitation, MM = Missing Value Source: NWS Daily Summary

Daily Weather History Graph

Daily Weather History Graph

Search for Another Location

Airport or City:

Trip Planner

Search our weather history database for the weather conditions in past years. The results will help you decide how hot, cold, wet, or windy it might be!

Date:

Astronomy

Jun. 25, 2014 Rise Set
Actual Time 5:30 AM CDT 9:21 PM CDT
Civil Twilight 4:50 AM CDT 10:01 PM CDT
Nautical Twilight 3:56 AM CDT 10:55 PM CDT
Astronomical Twilight 2:36 AM CDT 12:15 AM CDT
Moon 4:29 AM CDT (6/25) 7:49 PM CDT (6/25)
Length of Visible Light 17h 10m
Length of Day
15h 51m
Waning Crescent, 3% of the Moon is Illuminated
Jun 25
Waning Crescent
Jun 27
New
Jul 5
First Quarter
Jul 12
Full
Jul 18
Last Quarter

Hourly Weather History & Observations

Time (CDT) Temp. Dew Point Humidity Pressure Visibility Wind Dir Wind Speed Gust Speed Precip Events Conditions
12:15 AM 62.6 °F 60.8 °F 94% 30.02 in 10.0 mi ENE 3.5 mph - N/A   Overcast
12:34 AM 62.6 °F 59.0 °F 88% 30.02 in 10.0 mi East 6.9 mph - N/A   Overcast
12:55 AM 62.6 °F 59.0 °F 88% 30.02 in 10.0 mi East 10.4 mph - N/A   Overcast
1:14 AM 60.8 °F 59.0 °F 94% 30.03 in 10.0 mi East 5.8 mph - N/A   Mostly Cloudy
1:35 AM 60.8 °F 59.0 °F 94% 30.02 in 10.0 mi ESE 6.9 mph - N/A   Mostly Cloudy
1:55 AM 60.8 °F 59.0 °F 94% 30.03 in 10.0 mi ESE 5.8 mph - N/A   Mostly Cloudy
2:14 AM 60.8 °F 59.0 °F 94% 30.04 in 10.0 mi ESE 3.5 mph - N/A   Overcast
2:35 AM 59.0 °F 55.4 °F 88% 30.04 in 10.0 mi ESE 12.7 mph - N/A   Overcast
2:55 AM 59.0 °F 53.6 °F 82% 30.04 in 10.0 mi ESE 6.9 mph - N/A   Overcast
3:15 AM 57.2 °F 53.6 °F 88% 30.05 in 10.0 mi ESE 6.9 mph - N/A   Overcast
3:35 AM 57.2 °F 53.6 °F 88% 30.05 in 10.0 mi ESE 4.6 mph - N/A   Overcast
3:54 AM 57.2 °F 53.6 °F 88% 30.05 in 10.0 mi ESE 4.6 mph - N/A   Overcast
4:15 AM 55.4 °F 53.6 °F 94% 30.05 in 10.0 mi SE 6.9 mph - N/A   Overcast
4:35 AM 55.4 °F 53.6 °F 94% 30.05 in 10.0 mi ESE 6.9 mph - N/A   Overcast
4:54 AM 55.4 °F 53.6 °F 94% 30.05 in 10.0 mi ESE 6.9 mph - N/A   Overcast
5:15 AM 55.4 °F 53.6 °F 94% 30.06 in 10.0 mi SE 6.9 mph - N/A   Overcast
5:35 AM 55.4 °F 51.8 °F 88% 30.06 in 10.0 mi ESE 5.8 mph - N/A   Overcast
5:54 AM 55.4 °F 51.8 °F 88% 30.06 in 10.0 mi ESE 6.9 mph - N/A   Overcast
6:15 AM 55.4 °F 51.8 °F 88% 30.06 in 10.0 mi East 4.6 mph - N/A   Overcast
6:34 AM 53.6 °F 51.8 °F 94% 30.06 in 10.0 mi ESE 6.9 mph - N/A   Overcast
6:54 AM 53.6 °F 51.8 °F 94% 30.07 in 10.0 mi ESE 5.8 mph - N/A   Overcast
7:15 AM 53.6 °F 51.8 °F 94% 30.07 in 10.0 mi ESE 6.9 mph - N/A   Overcast
7:35 AM 53.6 °F 51.8 °F 94% 30.07 in 10.0 mi SE 6.9 mph - N/A   Overcast
7:54 AM 53.6 °F 51.8 °F 94% 30.08 in 10.0 mi SE 9.2 mph - N/A   Overcast
8:15 AM 55.4 °F 51.8 °F 88% 30.08 in 10.0 mi SE 6.9 mph - N/A   Overcast
8:34 AM 55.4 °F 51.8 °F 88% 30.08 in 10.0 mi SE 5.8 mph - N/A   Overcast
8:54 AM 55.4 °F 51.8 °F 88% 30.08 in 10.0 mi SE 6.9 mph - N/A   Overcast
9:15 AM 55.4 °F 51.8 °F 88% 30.08 in 10.0 mi East 5.8 mph - N/A   Overcast
9:34 AM 55.4 °F 51.8 °F 88% 30.08 in 10.0 mi ESE 5.8 mph - N/A   Overcast
9:54 AM 55.4 °F 51.8 °F 88% 30.09 in 10.0 mi ESE 6.9 mph - N/A   Overcast
10:15 AM 55.4 °F 51.8 °F 88% 30.09 in 10.0 mi SE 6.9 mph - N/A   Overcast
10:34 AM 55.4 °F 53.6 °F 94% 30.09 in 10.0 mi SSE 6.9 mph - N/A   Overcast
10:54 AM 57.2 °F 53.6 °F 88% 30.08 in 7.0 mi SE 9.2 mph - N/A   Overcast
11:15 AM 59.0 °F 53.6 °F 82% 30.08 in 10.0 mi SE 9.2 mph - N/A   Mostly Cloudy
11:34 AM 59.0 °F 53.6 °F 82% 30.07 in 10.0 mi SE 8.1 mph - N/A   Overcast
11:54 AM 60.8 °F 53.6 °F 77% 30.07 in 10.0 mi SE 6.9 mph - N/A   Overcast
12:15 PM 60.8 °F 55.4 °F 82% 30.07 in 10.0 mi SSE 8.1 mph - N/A   Overcast
12:34 PM 62.6 °F 55.4 °F 77% 30.07 in 10.0 mi SSE 10.4 mph - N/A   Overcast
12:55 PM 62.6 °F 55.4 °F 77% 30.07 in 10.0 mi SSE 9.2 mph - N/A   Overcast
1:14 PM 62.6 °F 55.4 °F 77% 30.07 in 10.0 mi SE 9.2 mph - N/A   Overcast
1:35 PM 62.6 °F 55.4 °F 77% 30.08 in 10.0 mi South 9.2 mph - N/A   Overcast
1:55 PM 62.6 °F 55.4 °F 77% 30.08 in 10.0 mi South 6.9 mph - N/A   Overcast
2:14 PM 62.6 °F 55.4 °F 77% 30.08 in 10.0 mi SSE 8.1 mph - N/A   Overcast
2:35 PM 62.6 °F 55.4 °F 77% 30.08 in 10.0 mi SSE 5.8 mph - N/A   Overcast
2:55 PM 62.6 °F 55.4 °F 77% 30.08 in 10.0 mi SSE 4.6 mph - N/A   Overcast
3:14 PM 64.4 °F 55.4 °F 73% 30.09 in 10.0 mi SSE 8.1 mph - N/A   Overcast
3:35 PM 64.4 °F 55.4 °F 73% 30.08 in 10.0 mi ESE 5.8 mph - N/A   Overcast
3:55 PM 64.4 °F 55.4 °F 73% 30.07 in 10.0 mi SSE 8.1 mph - N/A   Overcast
4:14 PM 66.2 °F 55.4 °F 68% 30.07 in 10.0 mi SE 6.9 mph - N/A   Overcast
4:34 PM 66.2 °F 55.4 °F 68% 30.07 in 10.0 mi ESE 6.9 mph - N/A   Mostly Cloudy
4:55 PM 68.0 °F 57.2 °F 68% 30.06 in 10.0 mi SSE 9.2 mph - N/A   Mostly Cloudy
5:14 PM 68.0 °F 57.2 °F 68% 30.05 in 10.0 mi SE 5.8 mph - N/A   Mostly Cloudy
5:34 PM 66.2 °F 57.2 °F 73% 30.05 in 10.0 mi SE 6.9 mph - N/A   Mostly Cloudy
5:55 PM 66.2 °F 57.2 °F 73% 30.05 in 10.0 mi SE 6.9 mph - N/A   Overcast
6:14 PM 66.2 °F 57.2 °F 73% 30.05 in 10.0 mi SSE 8.1 mph - N/A   Overcast
6:35 PM 66.2 °F 57.2 °F 73% 30.05 in 10.0 mi SE 8.1 mph - N/A   Overcast
6:55 PM 64.4 °F 57.2 °F 77% 30.05 in 10.0 mi ESE 8.1 mph - N/A   Overcast
7:14 PM 66.2 °F 57.2 °F 73% 30.05 in 10.0 mi SE 9.2 mph - N/A   Mostly Cloudy
7:35 PM 64.4 °F 57.2 °F 77% 30.04 in 10.0 mi ESE 10.4 mph - N/A   Scattered Clouds
8:15 PM 64.4 °F 55.4 °F 73% 30.04 in 10.0 mi SE 10.4 mph - N/A   Clear
8:34 PM 64.4 °F 55.4 °F 73% 30.04 in 10.0 mi ESE 8.1 mph - N/A   Clear
9:15 PM 62.6 °F 55.4 °F 77% 30.05 in 10.0 mi SE 8.1 mph - N/A   Clear
9:55 PM 60.8 °F 55.4 °F 82% 30.05 in 10.0 mi ESE 8.1 mph - N/A   Clear
10:15 PM 60.8 °F 55.4 °F 82% 30.05 in 10.0 mi SE 8.1 mph - N/A   Clear
10:34 PM 60.8 °F 55.4 °F 82% 30.04 in 10.0 mi ESE 8.1 mph - N/A   Clear
10:55 PM 60.8 °F 55.4 °F 82% 30.03 in 10.0 mi SE 8.1 mph - N/A   Clear
11:14 PM 59.0 °F 55.4 °F 88% 30.03 in 10.0 mi SE 8.1 mph - N/A   Clear
11:35 PM 59.0 °F 55.4 °F 88% 30.04 in 10.0 mi SE 9.2 mph - N/A   Clear